Preview of NWS' New Version of Forecast
This preview is not operational and should not be used for support decisions.

Regional Weather Roundup (RWR)

Issued by National Weather Service (NWS)

                            
000
ASUS46 KSEW 152010
RWRWA 

WASHINGTON REGIONAL WEATHER ROUNDUP
NATIONAL WEATHER SERVICE SEATTLE WA
1200 PM PST FRI FEB 15 2019

NOTE:"FAIR" INDICATES FEW OR NO CLOUDS BELOW 12,000 FEET WITH NO 
SIGNIFICANT WEATHER AND/OR OBSTRUCTIONS TO VISIBILITY.

WAZ507-509-555>559-152100-
SEATTLE, TACOMA, EVERETT, AND VICINITY
  
CITY           SKY/WX    TMP DP  RH WIND       PRES   REMARKS
EVERETT        PTSUNNY   42  36  79 SE13      29.63R                  
BOEING FIELD   CLOUDY    44  35  70 S10       29.65R                  
RENTON         LGT RAIN  45  36  70 S12G17    29.65R                  
SEATAC AIRPORT CLOUDY    44  35  70 S15       29.64R                  
JBLM-MCCHORD   CLOUDY    39  39 100 S7        29.65R                  
PUYALLUP       DRIZZLE   43  37  81 VRB6G14   29.65R                  
BREMERTON      CLOUDY    39  36  89 S15       29.64R                  
JBLM-FT LEWIS  PTSUNNY   42  42  99 S12       29.64R                  
TACOMA NARROWS LGT RAIN  42  37  82 S10       29.65R                  
$$
 
WAZ001-503-506-510-514-515-152100-
NORTH INTERIOR
  
CITY           SKY/WX    TMP DP  RH WIND       PRES   REMARKS
BELLINGHAM     CLOUDY    43  34  70 SE12      29.61R                  
FRIDAY HARBOR  LGT RAIN  45  39  79 CALM      29.61R                  
EASTSOUND      LGT RAIN  41  41 100 S5        29.60R                  
PORT ANGELES   CLOUDY    37  36  96 SE5       29.59R                  
EDIZ HOOK      CLOUDY    41  38  89 S3        29.60R                  
PORT TOWNSEND  PTSUNNY   43  37  81 S9        29.60R                  
NAS WHIDBEY    CLOUDY    48  37  65 S16G24    29.65R                  
ARLINGTON      PTSUNNY   42  35  76 S12       29.64R                  
BURLINGTON     CLOUDY    48  37  66 S10G16    29.62R                  
$$
 
WAZ020-022-039-040-504-511-512-152100-
SOUTHWEST INTERIOR
  
CITY           SKY/WX    TMP DP  RH WIND       PRES   REMARKS
SHELTON        LGT RAIN  39  36  89 SW3       29.62R                  
OLYMPIA        LGT RAIN  39  36  89 SW9       29.65R                  
CHEHALIS       CLOUDY    45  39  81 S10       29.66R                  
KELSO          CLOUDY    43  38  82 S8        29.68R                  
VANCOUVER      PTSUNNY   46  38  73 S6        29.68F                  
SCAPPOOSE, OR  CLOUDY    47  40  76 S9        29.68R                  
PORTLAND, OR   PTSUNNY   46  38  73 S9        29.69S                  
$$
 
WAZ021-516-517-152100-
WASHINGTON COAST
  
CITY           SKY/WX    TMP DP  RH WIND       PRES   REMARKS
FORKS          PTSUNNY   43  30  60 SE6       29.58R                  
HOQUIAM        CLOUDY    45  42  89 E7        29.62R                  
ASTORIA, OR    CLOUDY    45  44  97 E7        29.62S                  
$$
 
WAZ019-023-024-040-567>569-152100-
CASCADE MOUNTAINS AND COLUMBIA GORGE
  
CITY           SKY/WX    TMP DP  RH WIND       PRES   REMARKS
STAMPEDE PASS  LGT SNOW  30  26  85 CALM      29.54R FOG              
TROUTDALE, OR  PTSUNNY   41  36  82 E12       29.70S                  
HOOD RIVER, OR MOCLDY    34  30  86 CALM      29.70F                  
THE DALLES, OR PTSUNNY   32  27  81 CALM      29.74R                  
$$

WAZ026-027-041>044-520-521-152100-
EAST SLOPES
  
CITY           SKY/WX    TMP DP  RH WIND       PRES   REMARKS
OMAK           CLOUDY    29  25  85 CALM      29.66R                  
WENATCHEE      CLOUDY    29  27  92 S5        29.66R                  
ELLENSBURG     CLOUDY    35  27  72 CALM      29.63R                  
YAKIMA         CLOUDY    32  28  85 S6        29.67R                  
SUNNYSIDE ARPT CLOUDY    30  28  91 CALM      29.70                   
YAKIMA TC      MOCLDY    31  27  83 S7        29.64R                  
$$

WAZ028-034-035-152100-
COLUMBIA BASIN
  
CITY           SKY/WX    TMP DP  RH WIND       PRES   REMARKS
EPHRATA        CLOUDY    32  29  88 CALM      29.66R FOG              
MOSES LAKE     LGT SNOW  31  30  96 SW5       29.67S                  
PASCO          PTSUNNY   33  28  81 E6        29.72R                  
RICHLAND ARPT  MOCLDY    36  31  81 SW5       29.71S                  
HERMISTON, OR  CLOUDY    34  29  82 CALM      29.70R                  
$$

WAZ036>038-152100-
NORTHEAST WASHINGTON
  
CITY           SKY/WX    TMP DP  RH WIND       PRES   REMARKS
SPOKANE GEIGER SNOW      31  29  92 CALM      29.60R VSB 1/2          
SPOKANE FELTS  SNOW      32  31  96 CALM      29.61R VSB 1/2          
FAIRCHILD AFB  NOT AVBL                                               
COEURDALENE,ID SNOW      33  30  88 CALM      29.59R VSB 1/4          
DEER PARK      LGT SNOW  33  31  92 CALM      29.60R VSB 3/4          
$$

WAZ029>033-152100-
SOUTHEAST WASHINGTON
  
CITY           SKY/WX    TMP DP  RH WIND       PRES   REMARKS
PULLMAN        FLURRIES  31  29  92 W10       29.63R WCI  22          
LEWISTON, ID   CLOUDY    39  33  79 NW5       29.64S                  
WALLA WALLA    CLOUDY    33  28  81 N3        29.66R                  
PENDLETON, OR  PTSUNNY   32  30  92 E5        29.64S                  
$$